Location: Crescent
(42.8242°N, 73.7329°W)
Time: 15:00:13
(UTC+00:00)

Transit 2A Rocket - Visible Passes

Search period start: 02 November 2024 00:00
Search period end: 12 November 2024 00:00
Orbit: 583 x 906 km, 66.7° (Epoch: 01 November)

Date Brightness Start Highest point End Pass type
(mag) Time Alt. Az. Time Alt. Az. Time Alt. Az.
02 Nov 7.8 01:31:57 10° NNW 01:32:09 11° NNW 01:32:09 11° NNW visible
02 Nov 7.0 23:07:02 10° N 23:08:45 11° NNE 23:09:08 11° NE visible
03 Nov 7.2 00:47:31 10° NNW 00:48:54 18° NNW 00:48:54 18° NNW visible
04 Nov 6.6 00:03:14 10° NNW 00:05:43 22° N 00:05:43 22° N visible
04 Nov 6.5 23:19:08 10° N 23:22:35 19° NNE 23:22:35 19° NNE visible
05 Nov 7.2 01:00:53 10° NNW 01:02:21 19° NW 01:02:21 19° NW visible
05 Nov 6.8 22:35:23 10° N 22:37:52 13° NNE 22:39:29 12° NE visible
06 Nov 6.2 00:16:21 10° NNW 00:19:17 32° NNW 00:19:17 32° NNW visible
06 Nov 5.6 23:31:59 10° NNW 23:36:18 34° NE 23:36:18 34° NE visible
07 Nov 7.5 01:14:42 10° NW 01:16:05 17° WNW 01:16:05 17° WNW visible
07 Nov 6.1 22:47:48 10° N 22:51:58 23° NE 22:53:24 20° ENE visible
08 Nov 6.1 00:29:48 10° NW 00:33:13 38° NW 00:33:13 38° NW visible
08 Nov 6.6 22:03:52 10° N 22:06:55 15° NE 22:09:50 10° ENE visible
08 Nov 4.6 23:45:10 10° NNW 23:50:25 77° ENE 23:50:28 77° ENE visible
09 Nov 7.9 01:29:49 10° WNW 01:30:17 11° W 01:30:17 11° W visible
09 Nov 5.2 23:00:44 10° NNW 23:05:45 43° NE 23:07:55 27° ESE visible
10 Nov 6.8 00:43:48 10° NW 00:47:45 24° WSW 00:47:45 24° WSW visible
10 Nov 5.9 22:16:28 10° NNW 22:20:55 27° NE 22:25:01 10° ESE visible
10 Nov 5.8 23:58:43 10° NW 00:03:36 45° WSW 00:05:30 30° SSW visible
11 Nov 4.8 23:13:59 10° NNW 23:19:10 84° WSW 23:23:40 11° SSE visible
